| time (UTC) | temp F | wind direction | speed knots | gust knots | rain 1hr in | rain 24hr in | rain mn in | humidity % | barometer mb |
| 20260503021644 | 77 | 37 | 0.9 | 5.2 | 0.00 | 0.01 | 0.01 | 77 | 995.6 |
| 20260503020644 | 76 | 340 | 0.9 | 5.2 | 0.00 | 0.01 | 0.01 | 81 | 995.8 |
| 20260503015644 | 76 | 59 | 0.0 | 0.0 | 0.00 | 0.01 | 0.01 | 83 | 995.9 |
| 20260503014644 | 75 | 59 | 0.9 | 4.3 | 0.00 | 0.01 | 0.01 | 83 | 996.1 |
| 20260503013645 | 77 | 61 | 1.7 | 6.1 | 0.00 | 0.01 | 0.01 | 80 | 996.3 |
| 20260503012644 | 78 | 11 | 0.0 | 4.3 | 0.00 | 0.01 | 0.01 | 76 | 996.4 |
| 20260503011644 | 77 | 5 | 0.9 | 3.5 | 0.00 | 0.01 | 0.01 | 78 | 996.5 |
| 20260503010644 | 76 | 312 | 0.9 | 5.2 | 0.00 | 0.01 | 0.01 | 77 | 996.6 |
| 20260503005644 | 76 | 9 | 0.9 | 3.5 | 0.00 | 0.01 | 0.01 | 78 | 996.8 |
| 20260503004644 | 76 | 321 | 0.0 | 0.9 | 0.00 | 0.01 | 0.01 | 80 | 996.9 |
| 20260503003645 | 75 | 345 | 0.9 | 3.5 | 0.00 | 0.01 | 0.01 | 81 | 997.0 |
| 20260503002644 | 75 | 19 | 1.7 | 5.2 | 0.00 | 0.01 | 0.01 | 81 | 997.1 |
| 20260503001644 | 75 | 340 | 0.9 | 6.1 | 0.00 | 0.01 | 0.01 | 82 | 997.2 |
| 20260503000644 | 74 | 325 | 0.0 | 0.0 | 0.00 | 0.01 | 0.01 | 84 | 997.2 |
| 20260502235645 | 74 | 289 | 0.0 | 5.2 | 0.00 | 0.01 | 0.01 | 84 | 997.3 |
| 20260502234645 | 74 | 9 | 0.9 | 6.1 | 0.00 | 0.01 | 0.01 | 83 | 997.4 |
| 20260502233644 | 75 | 49 | 1.7 | 5.2 | 0.00 | 0.01 | 0.01 | 81 | 997.3 |
| 20260502232645 | 74 | 349 | 1.7 | 4.3 | 0.00 | 0.01 | 0.01 | 85 | 997.3 |
| 20260502231645 | 73 | 272 | 0.9 | 5.2 | 0.00 | 0.01 | 0.01 | 87 | 997.2 |
| 20260502230645 | 72 | 344 | 0.0 | 0.0 | 0.01 | 0.01 | 0.01 | 89 | 997.2 |
| 20260502225645 | 71 | 5 | 0.0 | 0.0 | 0.01 | 0.01 | 0.01 | 90 | 997.2 |
| 20260502224645 | 71 | 341 | 0.0 | 0.0 | 0.01 | 0.01 | 0.01 | 91 | 997.2 |
| 20260502223645 | 71 | 341 | 0.0 | 0.0 | 0.01 | 0.01 | 0.01 | 91 | 997.1 |
| 20260502222645 | 71 | 341 | 0.0 | 0.0 | 0.01 | 0.01 | 0.01 | 91 | 997.0 |
| 20260502221645 | 71 | 341 | 0.0 | 0.0 | 0.01 | 0.01 | 0.01 | 90 | 996.8 |
| 20260502220645 | 71 | 341 | 0.0 | 0.0 | 0.00 | 0.00 | 0.00 | 89 | 996.7 |
| 20260502215645 | 71 | 341 | 0.0 | 3.5 | 0.00 | 0.00 | 0.00 | 89 | 996.6 |
| 20260502214645 | 71 | 355 | 0.0 | 0.0 | 0.00 | 0.00 | 0.00 | 89 | 996.5 |
| 20260502213645 | 70 | 355 | 0.0 | 0.0 | 0.00 | 0.00 | 0.00 | 89 | 996.4 |
| 20260502212645 | 70 | 355 | 0.0 | 0.0 | 0.00 | 0.00 | 0.00 | 90 | 996.3 |
| 20260502211645 | 70 | 355 | 0.0 | 0.0 | 0.00 | 0.00 | 0.00 | 90 | 996.2 |
| 20260502210645 | 69 | 349 | 0.9 | 7.8 | 0.00 | 0.00 | 0.00 | 90 | 996.1 |
| 20260502205645 | 69 | 333 | 0.0 | 1.7 | 0.00 | 0.00 | 0.00 | 92 | 996.0 |
| 20260502204645 | 69 | 329 | 0.0 | 0.0 | 0.00 | 0.00 | 0.00 | 92 | 996.1 |
| 20260502203645 | 69 | 308 | 0.0 | 0.0 | 0.00 | 0.00 | 0.00 | 93 | 996.0 |
| 20260502202645 | 68 | 308 | 0.0 | 0.0 | 0.00 | 0.00 | 0.00 | 93 | 995.9 |
| 20260502201645 | 68 | 308 | 0.0 | 0.0 | 0.00 | 0.00 | 0.00 | 93 | 995.8 |
| 20260502200645 | 68 | 308 | 0.0 | 0.0 | 0.00 | 0.00 | 0.00 | 93 | 995.7 |
| 20260502195645 | 68 | 308 | 0.0 | 0.0 | 0.00 | 0.00 | 0.00 | 93 | 995.6 |
| 20260502194645 | 68 | 308 | 0.0 | 0.0 | 0.00 | 0.00 | 0.00 | 94 | 995.5 |
| 20260502193645 | 68 | 308 | 0.0 | 0.0 | 0.00 | 0.00 | 0.00 | 94 | 995.5 |
| 20260502192646 | 68 | 308 | 0.0 | 0.0 | 0.00 | 0.00 | 0.00 | 94 | 995.5 |
| 20260502191645 | 68 | 308 | 0.0 | 0.0 | 0.00 | 0.00 | 0.00 | 94 | 995.5 |
| 20260502190645 | 68 | 308 | 0.0 | 0.0 | 0.00 | 0.00 | 0.00 | 94 | 995.5 |
| 20260502185645 | 67 | 308 | 0.0 | 0.0 | 0.00 | 0.00 | 0.00 | 94 | 995.5 |
| 20260502184646 | 67 | 308 | 0.0 | 0.0 | 0.00 | 0.00 | 0.00 | 94 | 995.5 |
| 20260502183645 | 67 | 308 | 0.0 | 0.0 | 0.00 | 0.00 | 0.00 | 94 | 995.5 |
| 20260502182645 | 67 | 308 | 0.0 | 0.0 | 0.00 | 0.00 | 0.00 | 94 | 995.5 |
| 20260502181645 | 67 | 308 | 0.0 | 0.0 | 0.00 | 0.00 | 0.00 | 94 | 995.5 |
| 20260502180645 | 66 | 308 | 0.0 | 0.0 | 0.00 | 0.00 | 0.00 | 94 | 995.5 |
| 20260502163645 | 66 | 308 | 0.0 | 0.0 | 0.00 | 0.00 | 0.00 | 92 | 995.9 |
| 20260502162645 | 66 | 0 | 0.0 | 0.0 | 0.00 | 0.00 | 0.00 | 92 | 995.9 |
| 20260502161645 | 66 | 0 | 0.0 | 0.0 | 0.00 | 0.00 | 0.00 | 93 | 996.0 |
| 20260502160645 | 66 | 0 | 0.0 | 0.0 | 0.00 | 0.00 | 0.00 | 93 | 996.1 |
| 20260502151646 | 64 | 355 | 0.0 | 0.0 | 0.00 | 0.00 | 0.00 | 93 | 996.4 |
| 20260502150645 | 64 | 355 | 0.0 | 0.0 | 0.00 | 0.00 | 0.00 | 93 | 996.4 |
| 20260502130646 | 65 | 355 | 0.0 | 0.0 | 0.00 | 0.00 | 0.00 | 92 | 997.4 |
| 20260502123646 | 64 | 355 | 0.0 | 0.0 | 0.00 | 0.00 | 0.00 | 92 | 997.3 |
| 20260502122646 | 63 | 355 | 0.0 | 0.0 | 0.00 | 0.00 | 0.00 | 92 | 997.4 |
| 20260502121646 | 63 | 355 | 0.0 | 0.0 | 0.00 | 0.00 | 0.00 | 92 | 997.4 |
| 20260502120648 | 63 | 355 | 0.0 | 0.0 | 0.00 | 0.00 | 0.00 | 91 | 997.5 |
| 20260502115646 | 63 | 355 | 0.0 | 0.0 | 0.00 | 0.00 | 0.00 | 91 | 997.5 |
| 20260502114646 | 63 | 355 | 0.0 | 0.0 | 0.00 | 0.00 | 0.00 | 91 | 997.5 |
| 20260502113646 | 63 | 355 | 0.0 | 0.0 | 0.00 | 0.00 | 0.00 | 90 | 997.6 |
| 20260502112646 | 63 | 355 | 0.0 | 0.0 | 0.00 | 0.00 | 0.00 | 90 | 997.6 |
| 20260502111646 | 63 | 355 | 0.0 | 0.0 | 0.00 | 0.00 | 0.00 | 89 | 997.7 |
| 20260502110646 | 63 | 355 | 0.0 | 0.0 | 0.00 | 0.00 | 0.00 | 89 | 997.7 |
| 20260502105646 | 63 | 355 | 0.0 | 0.0 | 0.00 | 0.00 | 0.00 | 89 | 997.5 |
| 20260502104646 | 63 | 355 | 0.0 | 0.0 | 0.00 | 0.00 | 0.00 | 88 | 997.5 |
| 20260502103646 | 64 | 355 | 0.0 | 0.0 | 0.00 | 0.00 | 0.00 | 88 | 997.5 |
| 20260502102646 | 64 | 355 | 0.0 | 0.0 | 0.00 | 0.00 | 0.00 | 88 | 997.5 |
| 20260502101646 | 64 | 355 | 0.0 | 0.0 | 0.00 | 0.00 | 0.00 | 87 | 997.5 |
| 20260502100646 | 64 | 355 | 0.0 | 0.0 | 0.00 | 0.00 | 0.00 | 87 | 997.4 |
| 20260502090646 | 66 | 355 | 0.0 | 0.0 | 0.00 | 0.00 | 0.00 | 84 | 996.7 |
| 20260502070646 | 75 | 355 | 0.0 | 0.0 | 0.00 | 0.00 | 0.00 | 68 | 995.6 |
| 20260502065646 | 76 | 355 | 0.0 | 0.0 | 0.00 | 0.00 | 0.00 | 63 | 995.5 |
| 20260502064646 | 77 | 355 | 0.0 | 0.0 | 0.00 | 0.00 | 0.00 | 60 | 995.4 |
| 20260502063646 | 78 | 355 | 0.0 | 1.7 | 0.00 | 0.00 | 0.00 | 58 | 995.4 |
| 20260502062647 | 79 | 309 | 0.9 | 4.3 | 0.00 | 0.00 | 0.00 | 56 | 995.2 |
| 20260502061646 | 79 | 304 | 1.7 | 4.3 | 0.00 | 0.00 | 0.00 | 55 | 995.1 |
| 20260502060646 | 80 | 345 | 0.9 | 4.3 | 0.00 | 0.00 | 0.00 | 54 | 994.9 |
| 20260502055647 | 80 | 350 | 0.9 | 6.1 | 0.00 | 0.00 | 0.00 | 54 | 995.0 |
| 20260502054647 | 80 | 279 | 1.7 | 4.3 | 0.00 | 0.00 | 0.00 | 54 | 994.9 |
| 20260502053646 | 80 | 317 | 1.7 | 4.3 | 0.00 | 0.00 | 0.00 | 54 | 994.9 |
| 20260502052647 | 80 | 355 | 1.7 | 7.0 | 0.00 | 0.00 | 0.00 | 54 | 994.9 |
| 20260502051647 | 80 | 348 | 0.9 | 5.2 | 0.00 | 0.00 | 0.00 | 56 | 994.9 |
| 20260502050647 | 79 | 5 | 1.7 | 6.1 | 0.00 | 0.00 | 0.00 | 58 | 995.0 |
| 20260502045647 | 81 | 300 | 1.7 | 7.0 | 0.00 | 0.00 | 0.00 | 56 | 995.0 |
| 20260502044647 | 81 | 355 | 0.9 | 4.3 | 0.00 | 0.00 | 0.00 | 55 | 995.1 |
| 20260502043647 | 82 | 288 | 2.6 | 7.8 | 0.00 | 0.00 | 0.00 | 54 | 995.1 |
| 20260502042647 | 82 | 47 | 0.9 | 6.1 | 0.00 | 0.00 | 0.00 | 56 | 995.1 |
| 20260502041647 | 81 | 350 | 1.7 | 7.8 | 0.00 | 0.00 | 0.00 | 58 | 995.2 |
| 20260502040647 | 80 | 38 | 0.9 | 4.3 | 0.00 | 0.00 | 0.00 | 59 | 995.2 |
| 20260502035647 | 79 | 11 | 2.6 | 4.3 | 0.00 | 0.00 | 0.00 | 58 | 995.4 |
| 20260502034647 | 81 | 330 | 0.9 | 4.3 | 0.00 | 0.00 | 0.00 | 57 | 995.4 |
| 20260502033647 | 82 | 340 | 1.7 | 7.0 | 0.00 | 0.00 | 0.00 | 55 | 995.5 |
| 20260502032647 | 82 | 348 | 1.7 | 5.2 | 0.00 | 0.00 | 0.00 | 56 | 995.6 |
| 20260502031647 | 83 | 9 | 0.9 | 6.1 | 0.00 | 0.00 | 0.00 | 57 | 995.7 |
| 20260502030647 | 82 | 326 | 0.9 | 4.3 | 0.00 | 0.00 | 0.00 | 58 | 995.9 |
| 20260502025647 | 82 | 355 | 0.9 | 4.3 | 0.00 | 0.00 | 0.00 | 59 | 996.1 |
| 20260502024647 | 83 | 318 | 0.9 | 5.2 | 0.00 | 0.00 | 0.00 | 59 | 996.2 |
| 20260502023647 | 81 | 336 | 1.7 | 7.0 | 0.00 | 0.00 | 0.00 | 61 | 996.4 |
| 20260502022647 | 81 | 277 | 1.7 | 5.2 | 0.00 | 0.00 | 0.00 | 59 | 996.4 |